Regional Weather Roundup
Issued by NWS Upton, NY

Home | Current Version | Previous Version | Text Only | Print | Product List | Glossary On
Versions: 1 2 3 4 5 6 7 8 9 10 11 12 13 14 15 16 17 18 19 20 21 22 23 24 25 26 27 28 29 30 31 32 33 34 35 36 37 38 39 40 41 42 43 44 45 46 47 48 49 50
188
ASUS41 KOKX 250214
RWROKX

Regional Weather Roundup
National Weather Service New York NY
1000 PM EDT SAT AUG 24 2019

Note: "FAIR" indicates few or no clouds below 12,000 feet with no
significant weather and/or obstructions to visibility.

NYZ071-072-176-178-NJZ106-104-250300-
New York City Metro Area

CITY           SKY/WX    TMP DP  RH WIND       PRES   REMARKS
Central Park   MOCLDY    68  52  56 CALM      30.26R
Bronx Lehman C   N/A     70  54  56 SE5         N/A
LaGuardia Arpt MOCLDY    71  52  50 SE8       30.22R
Queens College   N/A     70  54  56 SE5         N/A
Kennedy Intl   FAIR      67  58  72 CALM      30.23R
Breezy Point     N/A     68 N/A N/A E5          N/A
Brooklyn Coll    N/A     70  54  56 SE3         N/A
Staten Island    N/A     68  55  64 SE2         N/A
Newark/Liberty FAIR      71  55  56 SE7       30.23R
Teterboro      CLOUDY    71  52  50 NE5       30.22R
$$

NYZ177-179-078>081-250300-
Long Island New York

CITY           SKY/WX    TMP DP  RH WIND       PRES   REMARKS
Jones Beach      N/A     68 N/A N/A E5          N/A
Wantagh          N/A     66  55  68 NE2         N/A
Hempstead        N/A     66  57  72 CALM      30.27R
Matinecock Pt    N/A     66 N/A N/A S3          N/A
Farmingdale    FAIR      64  56  75 E5        30.24R
MacArthur/ISP  FAIR      63  56  78 E5        30.24R
Stony Brook      N/A     64  55  72 E3          N/A
Shirley        FAIR      61  55  81 CALM      30.24R
Mt Sinai Harb    N/A    N/A N/A N/A SE6         N/A
Westhampton    FAIR      63  57  81 CALM      30.26R
East Hampton   FAIR      64  57  79 E5        30.24S
Southold         N/A     66  59  77 E6          N/A
Montauk          N/A     67  56  67 NE8       30.26R
$$

NYZ052-065-067-250300-
Hudson Valley

CITY           SKY/WX    TMP DP  RH WIND       PRES   REMARKS
White Plains   FAIR      62  56  80 CALM      30.24R
Larchmont Harb   N/A     70 N/A N/A SE7         N/A
Croton On Huds   N/A     68 N/A N/A NE3         N/A
Somers           N/A     63  55  77 N2          N/A
Brewster         N/A     57  55  94 N2          N/A
Newburgh       MOCLDY    66  57  72 CALM      30.26R
Montgomery     CLOUDY    61  57  87 CALM      30.25R
Otisville        N/A     59  55  88 CALM        N/A
Warwick          N/A     59  59 100 W2          N/A
Suffern          N/A     64  55  72 N5          N/A
Poughkeepsie   MOCLDY    61  56  83 CALM      30.24R
Albany         MOCLDY    66  53  63 N8        30.28R
$$

NJZ001-105-106-008-010-013-015-019>022-104-250300-
New Jersey

CITY           SKY/WX    TMP DP  RH WIND       PRES   REMARKS
Newark/Liberty FAIR      71  55  56 SE7       30.23R
Teterboro      CLOUDY    71  52  50 NE5       30.22R
Caldwell       CLOUDY    68  56  65 CALM      30.24R
Somerville     CLOUDY    61  57  87 NW3       30.21R
Linden         MOCLDY    71  55  56 CALM      30.23R
Perth Amboy      N/A     70 N/A N/A SE9         N/A
Sussex         FAIR      59  55  87 CALM      30.26R
Andover          N/A     59  57  93 CALM      30.26R
Trenton        FAIR      63  52  67 N6        30.22R
Millville      FAIR      61  58  90 CALM      30.21R
Atlantic City  FAIR      63  55  75 NE3       30.21R
Wrightstown    FAIR      62  55  77 CALM      30.22R
Toms River     FAIR      59  32  36 CALM      30.23R
Belmar         FAIR      66  56  70 E3        30.24R
$$

PAZ047>061-062-071-250300-
Eastern Pennsylvania

CITY           SKY/WX    TMP DP  RH WIND       PRES   REMARKS
Philadelphia   FAIR      68  51  54 E8        30.22R
Allentown      FAIR      63  53  70 CALM      30.24R
Scranton       CLOUDY    62  54  74 E3        30.27R
$$

CTZ002-004>006-009-010-012-RIZ004-006-007-MAZ004-011-015-250300-
Southern New England

 In CT

CITY           SKY/WX    TMP DP  RH WIND       PRES   REMARKS
Bradley Intl   MOCLDY    68  56  65 E9        30.26R
Hartford       CLOUDY    68  56  65 CALM      30.25R
Danbury        FAIR      59  55  87 SW5       30.26R
Wtrbury/Oxford CLOUDY    62  55  77 CALM      30.27R
Norwalk Harbor   N/A     70 N/A N/A SE10        N/A
Bridgeport     MOCLDY    69  55  60 SE7       30.24R
Meriden        CLOUDY    66  55  67 CALM      30.25R
New Haven      CLOUDY    70  59  68 VRB3      30.25R
Chester        FAIR      63  59  88 CALM      30.26S
Groton         FAIR      65  55  70 NE7       30.25R
Willimantic    MOCLDY    64  56  75 N5        30.28R

 In RI

CITY           SKY/WX    TMP DP  RH WIND       PRES   REMARKS
Providence     FAIR      62  56  80 NE7       30.28R
Block Island   FAIR     N/A N/A N/A NE10G18   30.26R
Westerly       FAIR      63  58  83 N3        30.26R

In MA

CITY           SKY/WX    TMP DP  RH WIND       PRES   REMARKS
Boston         FAIR      66  58  75 E5        30.28R
Worcester      FAIR      60  54  80 E3        30.31R
Westfield      CLOUDY    68  55  63 E8        30.26R
Provincetown   FAIR      64  58  80 NE9       30.27S
Nantucket      FAIR      62  58  86 NE10      30.23S
$$

ANZ330-335-338-340-345-350-353-355-250300-
Coastal Marine Observations


STATION/POSITION TIME  SKY/WX   TEMP    WIND        PRES    VSBY  WAVE
                                AIR SEA DIR/SP/G                  HT/PER
                 (UTC)          (F)     (DEG/KT/KT) (MB)    (MI)  (FT/S)
NY Harb Entrance 0150            71 73  100/  8/ 10 1023.2          1/ 7
20 S Fire Island 0150            71 72   70/ 12/ 14 1023.2          2/ 5
Great South Bay  0130            71 78   90/ 12/ 14   N/A
23 SSW Montauk P NOT AVBL
15 E Barnegat Li 0200               73                N/A           3/ 5
Hudson Canyon    0150            72 78   70/ 14/ 17 1022.7          3/ 5
Kings Point      0130            69 74  190/  3/  5 1024.1
Execution Rocks  NOT AVBL
Western LI Sound NOT AVBL
Central LI Sound NOT AVBL
Robbins Reef     0130            71     150/  8/ 11 1023.3
$$


>>>>>>>>>>>>>>>>>>>>>>>>>>>> KEY <<<<<<<<<<<<<<<<<<<<<<<<<<<
>                                                          <
>     SKY/WX - Sky Condition/Present Weather               <
>     TMP    - Temperature in Fahrenheit                   <
>     DP     - Dew Point in Fahrenheit                     <
>     RH     - Relative Humidity in Percent                <
>     WIND   - Direction (from) and Speed in MPH           <
>     PRES   - Mean Sea Level Pressure (inches of Hg)      <
>     WCI    - Wind Chill Index                            <
>     VSB    - Visibility in Miles                         <
>     HX     - Heat Index                                  <
>     TC     - Temperature in Celsius                      <
>     VRB    - Variable Wind Direction                     <
>                                                          <
>>>>>>>>>>>>>>>>>>>>>>>>>>>> KEY <<<<<<<<<<<<<<<<<<<<<<<<<<<




USA.gov is the U.S. government's official web portal to all federal, state and local government web resources and services.